Temperature
7 6 6 7 7 8 8 8 9 9 10 10 9 10 10 11 11 11 11 11 11 12 13 13 13 13 14 14 14 14 14 14 14 14 13 13 13 13 13 13 13 13 13 13
5 6 7 8 8 8 8 8 8 9 10 10 9 9 10 10 10 11 10 11 11 11 12 12 12 13 13 13 13 13 13 14 14 14 13 13 13 13 13 13 13 12 13 12
5 6 7 8 8 8 8 7 8 8 9 9 9 8 9 9 10 10 10 11 11 11 11 12 12 12 12 13 13 13 13 13 13 13 13 13 12 12 12 12 12 12 12 12
5 6 7 7 7 7 7 8 8 8 8 7 8 7 8 8 8 9 9 10 10 10 11 11 11 12 12 12 12 12 12 12 13 13 13 13 12 12 12 12 12 12 12 12
5 6 6 7 7 7 7 8 8 8 7 6 7 6 7 7 8 8 8 8 9 10 10 10 11 11 11 11 12 12 12 12 12 12 12 12 12 12 12 12 12 11 11 11
5 6 6 6 7 8 7 7 7 6 6 6 6 6 6 6 7 8 8 8 9 9 10 10 10 10 10 11 11 11 11 11 11 11 11 12 11 11 11 11 11 11 11 11
4 5 6 6 6 6 6 6 5 5 5 5 6 6 6 7 7 7 7 8 8 9 9 9 9 9 10 10 10 10 10 10 11 11 11 11 11 11 11 11 11 11 11 11
3 3 5 5 6 5 5 5 5 5 5 5 6 5 6 6 6 7 8 7 8 8 8 8 8 9 9 9 9 9 10 10 10 10 10 10 10 10 10 10 10 10 10 10
3 3 4 5 6 6 5 5 5 4 4 4 5 5 6 6 6 6 6 6 6 7 7 7 8 8 8 8 9 9 9 9 9 9 9 9 9 10 10 10 10 10 10 10
2 2 3 4 5 5 5 5 4 4 4 5 5 5 5 5 5 5 5 5 5 6 6 6 7 7 7 8 8 8 8 8 8 8 9 9 9 9 9 9 9 9 9 9
2 1 2 3 3 4 4 4 3 3 3 4 4 4 5 5 5 4 4 5 5 5 5 6 6 6 7 7 7 7 7 7 7 8 8 8 8 8 8 8 8 8 8 8
2 1 1 2 3 4 4 3 3 3 3 2 3 4 5 3 4 4 4 4 4 4 5 5 5 6 6 6 6 6 7 7 7 7 7 7 7 7 7 7 7 7 7 8
2 0 1 2 2 2 2 3 3 2 2 2 3 4 4 3 3 4 4 3 3 4 4 4 4 5 5 5 6 6 6 6 6 6 6 6 6 6 6 6 7 7 7 7
2 -0 0 2 2 1 1 2 2 2 2 2 2 3 4 3 3 2 3 3 3 3 3 3 3 4 4 4 5 5 5 5 5 5 5 5 5 5 6 6 6 6 6 6
0 -0 -0 0 1 1 2 2 2 2 2 2 3 3 4 3 2 2 2 2 2 2 2 2 3 3 3 4 4 4 4 4 5 5 5 5 5 5 5 5 5 5 5 5
-1 -1 -0 0 1 1 1 1 2 2 2 2 2 2 2 2 2 2 1 1 1 1 1 2 2 2 3 3 3 3 4 4 4 4 4 4 4 4 4 4 4 4 4 4
-2 -1 -1 -0 -0 0 0 1 1 1 1 2 2 2 1 1 1 1 1 1 1 1 1 1 2 2 2 2 3 3 3 3 3 4 4 4 4 3 3 3 3 3 3 3
-2 -2 -2 -1 -1 -1 0 0 0 1 0 0 1 1 1 1 1 1 1 1 0 1 1 1 1 1 1 2 2 2 2 3 3 3 3 3 3 3 3 3 3 3 3 3
-2 -2 -2 -2 -2 -1 -0 0 -0 -0 -0 -0 -0 0 0 0 0 -0 1 1 0 0 1 1 1 1 1 1 1 1 2 2 2 2 2 2 2 2 2 2 2 2 2 2
-2 -3 -3 -3 -2 -1 -0 -0 -0 0 -0 -1 -1 -1 -1 -1 -1 -1 0 0 0 0 0 0 0 0 0 1 1 1 1 1 1 1 1 1 1 1 1 1 1 1 1 1
-3 -3 -3 -3 -3 -2 -1 -1 0 -0 -0 -0 -0 -1 -1 -1 -1 -0 -0 -0 -0 -0 -0 -0 -0 -0 -0 -0 -0 0 0 1 1 1 1 1 1 1 1 1 1 1 1 1
-3 -3 -4 -4 -3 -2 -1 -1 -1 -1 -1 -1 -0 -0 -1 -1 -1 -1 -1 -1 -1 -1 -1 -1 -1 -1 -1 -1 -1 -0 -0 -0 -0 -0 -0 0 0 -0 -0 -0 -0 -0 -0 -0
-3 -3 -3 -3 -2 -2 -1 -1 -0 -0 -1 -1 -1 -0 -1 -1 -1 -2 -2 -2 -2 -2 -2 -2 -2 -2 -2 -2 -1 -1 -1 -1 -1 -1 -1 -1 -1 -1 -1 -1 -1 -1 -1 -1
-3 -3 -3 -4 -3 -2 -2 -1 -1 -1 -1 -1 -1 -1 -1 -1 -2 -2 -2 -2 -2 -2 -2 -2 -2 -2 -2 -2 -2 -2 -2 -2 -2 -1 -1 -1 -1 -1 -2 -2 -1 -1 -1 -1
-4 -4 -4 -3 -3 -3 -2 -1 -1 -1 -1 -1 -1 -1 -2 -2 -2 -2 -3 -3 -3 -3 -2 -2 -2 -2 -2 -2 -2 -2 -2 -2 -2 -2 -2 -2 -2 -2 -2 -2 -2 -2 -2 -2
-5 -4 -4 -3 -3 -3 -2 -1 -1 -1 -2 -2 -2 -2 -2 -2 -2 -3 -3 -3 -3 -3 -3 -3 -3 -3 -3 -3 -3 -3 -3 -3 -3 -3 -3 -3 -3 -3 -3 -3 -3 -3 -3 -3
Wind_Speed
1 2 5 7 6 3 4 4 4 4 3 3 5 5 6 4 2 3 4 4 4 4 3 2 3 4 5 5 5 6 7 6 6 5 5 4 4 3 3 4 6 7 7 8
2 3 4 4 4 3 3 3 2 1 1 2 3 5 6 4 3 4 5 5 5 3 1 2 2 3 4 5 5 5 6 6 5 5 4 3 3 3 2 3 4 6 7 7
3 3 2 3 4 4 3 5 4 2 2 1 2 4 5 3 2 2 3 4 4 5 4 3 3 3 4 4 5 5 5 5 4 5 4 4 3 3 2 2 2 3 6 6
1 1 1 2 4 4 4 3 4 4 3 2 2 4 6 4 3 3 3 2 3 3 4 4 3 3 4 4 3 4 4 4 4 5 6 8 6 4 4 3 2 2 4 5
1 1 2 4 4 3 4 3 3 3 3 0 1 3 6 3 4 5 4 3 3 3 4 4 4 4 3 2 3 3 4 4 4 5 6 7 5 3 3 3 4 2 2 4
1 1 1 2 1 2 3 4 5 4 3 3 5 5 5 4 6 5 5 4 3 2 3 3 3 3 2 2 2 3 4 4 4 4 5 6 7 6 6 5 4 3 2 2
3 3 2 1 2 2 3 5 2 1 2 5 4 4 6 5 4 7 7 5 3 3 3 3 3 3 3 3 2 2 4 4 3 4 4 4 5 6 7 6 5 4 3 2
2 2 2 1 2 3 2 5 5 5 5 3 2 5 5 4 3 3 4 4 3 3 3 3 3 3 3 3 2 2 3 3 3 4 3 3 4 3 3 4 4 4 3 3
1 2 3 2 0 4 3 3 3 3 1 1 3 4 5 2 1 1 2 3 2 2 2 2 2 2 2 2 2 2 3 3 3 3 3 3 3 3 3 3 3 3 2 2
2 0 3 3 2 2 3 3 3 4 4 2 3 4 4 3 3 1 2 2 2 2 2 2 2 2 1 2 1 2 2 3 3 3 3 3 3 3 3 3 3 3 2 3
2 2 3 2 1 2 1 2 2 2 3 4 3 5 3 5 4 4 3 2 2 2 1 1 1 1 2 2 2 2 2 2 2 3 3 3 3 3 3 3 3 2 2 3
1 2 0 3 3 1 2 3 4 3 2 2 2 5 3 2 1 2 2 2 2 2 2 2 2 2 2 2 2 2 2 2 2 2 3 3 3 3 3 3 3 3 3 2
2 3 2 3 3 3 1 1 2 3 2 3 3 5 3 3 3 2 2 2 2 2 3 3 3 3 3 2 2 2 2 2 2 3 3 3 3 3 3 3 3 3 3 3
3 2 4 6 4 2 2 2 2 3 3 3 5 5 5 2 1 1 1 2 2 2 3 3 3 3 2 2 2 2 1 1 2 3 3 3 2 2 3 3 3 3 3 3
3 1 1 3 4 3 4 5 5 5 6 6 6 6 6 4 3 2 2 2 3 3 3 3 2 2 2 3 2 2 2 1 2 3 3 2 2 2 3 3 3 3 3 3
2 1 0 2 2 2 3 5 7 7 6 6 5 7 5 2 2 2 2 2 2 1 1 1 2 2 2 2 2 2 2 1 2 3 3 2 3 3 3 3 3 4 3 3
1 2 1 2 3 3 4 5 6 4 4 5 7 6 2 1 3 3 3 3 2 1 0 0 0 0 1 1 2 2 1 2 3 3 3 3 3 3 3 3 3 3 3 3
3 2 1 0 2 4 6 2 3 4 4 4 4 3 3 3 2 2 2 3 2 1 1 0 0 1 1 2 2 2 2 2 3 3 3 3 3 3 3 3 3 3 3 3
4 4 2 1 2 6 6 3 2 3 5 4 5 4 1 1 2 1 1 1 2 2 1 1 0 1 1 2 2 3 3 3 3 2 2 2 3 3 3 3 2 2 2 2
2 3 3 3 2 5 6 4 2 2 5 4 5 5 3 2 2 4 2 0 0 1 1 1 2 2 2 2 2 3 3 3 2 2 2 2 2 3 2 2 2 1 2 2
1 1 3 4 4 7 6 3 2 4 6 3 4 5 4 4 4 3 2 2 2 1 2 2 2 2 1 1 2 2 2 1 1 1 2 2 2 2 2 2 2 2 2 2
5 4 4 4 5 8 3 3 5 6 2 2 2 4 4 3 2 2 2 2 2 2 2 2 2 2 1 1 2 2 1 1 1 2 2 2 2 2 2 2 2 2 2 2
6 7 5 7 8 4 3 4 3 2 3 2 2 3 5 4 3 3 2 2 2 2 1 1 2 2 2 1 1 2 1 1 2 2 2 1 2 2 2 2 2 1 2 1
4 3 4 4 7 5 4 3 2 2 3 3 3 3 4 4 4 3 3 2 1 1 1 2 2 2 1 1 1 1 1 1 2 2 1 2 2 2 1 1 1 1 1 1
5 5 4 6 5 3 4 5 4 3 2 1 2 3 4 4 4 3 3 2 1 1 0 1 1 1 0 1 1 1 1 2 2 1 1 1 1 1 1 1 1 1 2 3
5 6 7 8 6 6 5 4 5 4 3 3 3 2 2 4 4 3 2 2 2 1 1 1 1 1 0 1 1 1 1 1 2 1 1 1 1 1 1 1 1 2 1 1
Wind_Direction
119 135 195 200 190 175 158 156 198 222 197 157 194 229 254 266 241 212 192 188 187 197 210 157 140 135 129 133 139 149 147 150 147 151 154 152 158 159 153 152 152 151 151 151
90 216 224 184 172 151 151 161 195 263 126 176 204 249 253 246 220 198 189 194 196 191 130 125 125 126 140 149 155 154 157 159 161 165 163 156 148 153 158 142 142 149 150 148
173 229 204 168 177 183 197 180 189 197 19 58 113 289 267 268 245 221 197 192 185 180 179 167 147 142 141 151 163 166 164 162 160 146 131 115 97 90 113 145 153 151 154 151
243 278 166 180 196 176 219 193 183 165 128 242 161 240 266 250 256 243 230 198 189 183 161 155 158 158 162 173 166 155 154 151 150 143 149 152 157 169 185 176 166 147 146 143
237 216 169 201 215 178 202 184 157 158 143 193 232 197 270 248 234 235 231 213 202 186 161 160 170 174 164 154 153 150 146 146 149 148 157 160 157 158 143 143 144 136 122 129
300 348 158 220 220 169 122 87 61 54 98 225 216 194 261 233 218 218 222 214 202 173 152 150 144 122 99 105 117 134 141 142 146 150 153 156 157 154 147 153 158 152 138 124
0 352 353 70 82 54 94 110 106 124 199 234 197 196 247 248 225 214 210 207 192 155 142 132 122 115 116 123 129 140 143 144 145 150 153 153 156 160 166 168 167 161 160 166
62 307 316 11 140 177 190 150 161 182 198 243 189 215 249 267 253 218 186 171 150 143 143 145 151 147 145 149 142 143 148 150 149 154 157 147 146 154 163 163 162 168 173 179
113 283 321 330 5 144 155 186 171 137 124 178 235 268 296 321 6 69 109 120 127 134 129 120 134 131 140 145 156 161 157 153 152 152 151 146 145 146 146 144 141 152 150 147
131 250 306 310 25 23 141 149 112 135 158 211 244 240 236 245 231 201 159 143 128 104 90 95 122 135 135 148 140 130 141 151 149 142 148 149 146 143 136 132 136 145 141 129
88 116 327 21 128 206 89 122 129 146 162 168 215 259 250 229 217 195 186 162 140 116 96 102 116 132 117 97 100 109 113 112 118 127 130 129 135 131 125 129 138 144 135 134
76 115 289 277 276 251 167 169 150 157 227 194 192 264 318 305 273 158 139 126 107 88 76 84 80 76 83 88 94 99 108 116 123 131 128 129 127 128 131 135 136 128 120 117
92 105 74 345 335 354 19 183 152 139 144 181 191 258 335 18 36 71 111 121 100 74 65 62 62 60 64 68 80 90 90 107 110 122 123 121 126 135 142 141 132 119 113 102
104 112 175 200 220 200 258 259 187 154 186 210 220 250 286 317 351 11 96 105 99 82 75 65 51 42 41 45 62 74 66 90 101 109 120 129 139 144 143 130 117 114 112 109
91 154 220 255 254 218 238 240 214 207 208 208 234 246 262 247 225 198 146 118 97 78 68 65 54 37 32 31 35 44 43 67 104 111 115 129 133 124 112 110 111 107 103 104
60 150 122 298 289 237 273 261 235 228 221 227 249 264 268 247 136 130 137 138 131 112 76 61 51 45 42 34 24 31 32 47 97 110 113 112 115 112 110 110 112 110 102 96
68 122 126 271 322 11 279 248 221 219 216 202 226 239 243 198 181 182 180 170 173 180 141 113 57 13 18 26 32 33 25 54 91 106 107 102 107 114 119 118 109 113 111 105
164 150 158 241 42 239 246 249 219 217 248 240 232 229 219 213 189 159 165 179 194 204 192 210 341 1 13 27 40 41 41 67 96 102 99 96 103 106 102 110 114 114 111 111
175 164 150 150 221 272 286 266 198 208 261 243 229 236 226 74 83 315 290 190 202 199 189 171 141 66 56 57 57 65 60 64 85 98 100 99 109 115 109 113 122 119 116 113
91 120 139 153 192 241 253 264 233 140 268 247 209 219 209 137 190 243 244 171 122 91 101 96 77 69 68 37 62 84 79 74 72 77 90 93 106 118 124 127 117 103 120 124
102 107 178 192 222 261 260 272 122 177 245 261 209 210 198 202 221 213 166 156 139 112 99 99 99 94 91 65 78 92 93 86 49 60 73 77 86 104 111 102 88 105 107 106
187 184 193 177 208 252 248 151 186 223 253 239 222 202 189 193 187 159 152 151 127 94 85 91 99 80 63 80 96 89 79 36 62 72 74 81 89 96 96 99 83 88 104 103
201 196 191 197 217 245 211 208 229 193 200 226 215 201 173 171 178 164 158 144 124 110 97 95 104 81 47 43 100 119 343 27 85 91 87 84 84 85 98 116 113 104 108 120
242 195 193 234 252 251 251 261 274 208 206 217 194 176 159 167 176 171 164 160 148 131 113 103 101 88 44 21 33 58 29 61 93 103 100 93 97 85 79 106 142 151 155 161
226 196 205 236 254 267 259 236 235 235 214 179 153 152 165 161 166 167 169 181 183 182 128 119 128 128 54 26 23 28 54 86 93 87 83 85 86 98 87 90 155 171 200 195
209 200 201 226 215 202 227 218 203 203 216 206 177 165 158 164 172 166 172 186 175 165 129 109 120 120 46 39 21 10 37 102 113 99 82 80 83 94 105 87 23 8 343 293
Height
1479 1483 1483 1483 1484 1485 1487 1489 1491 1490 1487 1490 1493 1493 1491 1489 1489 1489 1490 1491 1493 1494 1496 1498 1500 1502 1504 1506 1509 1511 1514 1516 1519 1521 1523 1525 1527 1529 1531 1533 1534 1536 1537 1538
1482 1483 1481 1481 1483 1484 1487 1490 1492 1489 1488 1490 1493 1493 1489 1488 1488 1488 1489 1490 1491 1492 1494 1496 1498 1500 1502 1503 1506 1508 1511 1513 1516 1518 1520 1523 1525 1527 1529 1530 1532 1533 1535 1536
1482 1482 1480 1481 1483 1485 1487 1490 1491 1491 1490 1490 1493 1495 1491 1488 1487 1487 1488 1488 1489 1490 1491 1493 1495 1497 1499 1501 1503 1505 1507 1510 1512 1515 1517 1520 1522 1524 1526 1527 1529 1530 1532 1533
1482 1480 1480 1481 1483 1484 1488 1486 1488 1490 1495 1499 1497 1504 1494 1489 1488 1486 1486 1487 1487 1488 1489 1491 1493 1495 1496 1498 1500 1502 1504 1507 1509 1512 1514 1515 1517 1519 1522 1524 1526 1527 1529 1531
1483 1481 1481 1482 1482 1483 1485 1484 1487 1490 1496 1502 1500 1504 1496 1489 1488 1486 1486 1485 1485 1487 1487 1489 1491 1492 1494 1496 1498 1500 1502 1504 1506 1509 1511 1513 1515 1517 1519 1521 1523 1524 1526 1528
1483 1481 1482 1482 1482 1482 1484 1487 1490 1494 1499 1505 1500 1502 1497 1490 1485 1484 1484 1483 1484 1485 1486 1487 1489 1491 1492 1494 1496 1497 1499 1501 1503 1506 1508 1510 1512 1514 1516 1518 1520 1521 1523 1524
1486 1484 1483 1482 1484 1485 1486 1493 1501 1503 1506 1503 1496 1497 1494 1484 1482 1481 1481 1481 1482 1483 1484 1485 1487 1488 1490 1492 1493 1495 1497 1498 1500 1502 1505 1507 1509 1511 1513 1515 1516 1518 1519 1521
1492 1492 1486 1484 1485 1488 1489 1492 1500 1503 1502 1501 1496 1496 1489 1482 1479 1478 1479 1480 1481 1482 1483 1484 1485 1486 1488 1490 1491 1493 1494 1496 1497 1499 1501 1504 1506 1508 1510 1512 1513 1515 1516 1518
1495 1494 1487 1485 1485 1486 1490 1493 1493 1500 1502 1503 1499 1494 1486 1480 1479 1478 1479 1479 1480 1480 1481 1482 1483 1485 1486 1488 1490 1491 1492 1493 1495 1496 1499 1501 1503 1505 1507 1509 1511 1512 1514 1515
1493 1497 1491 1488 1485 1486 1488 1491 1497 1500 1503 1502 1498 1494 1488 1483 1481 1480 1479 1479 1479 1480 1480 1481 1482 1483 1485 1487 1488 1489 1490 1491 1492 1494 1496 1498 1500 1502 1504 1505 1507 1509 1511 1512
1493 1499 1497 1492 1492 1491 1492 1493 1496 1499 1499 1502 1501 1496 1482 1481 1479 1479 1478 1478 1479 1479 1479 1480 1481 1482 1484 1485 1486 1487 1488 1489 1490 1492 1494 1495 1497 1499 1500 1502 1504 1506 1508 1509
1494 1499 1501 1497 1493 1491 1491 1492 1495 1500 1503 1503 1502 1496 1481 1480 1479 1478 1478 1479 1479 1479 1479 1479 1480 1481 1482 1483 1484 1486 1486 1487 1489 1490 1492 1493 1495 1497 1498 1499 1501 1503 1505 1506
1494 1500 1504 1501 1499 1496 1494 1493 1494 1497 1501 1503 1501 1493 1482 1481 1479 1479 1479 1479 1479 1479 1479 1480 1480 1480 1481 1482 1483 1484 1485 1486 1487 1489 1490 1491 1493 1494 1495 1497 1498 1500 1502 1503
1493 1500 1502 1500 1497 1497 1497 1494 1493 1496 1501 1500 1496 1489 1484 1483 1482 1481 1480 1480 1480 1480 1480 1479 1480 1480 1481 1481 1482 1482 1483 1485 1486 1487 1488 1489 1490 1492 1493 1494 1496 1497 1499 1500
1494 1501 1500 1497 1494 1494 1492 1492 1491 1493 1493 1495 1490 1487 1482 1482 1481 1481 1480 1480 1480 1480 1480 1480 1480 1480 1480 1480 1481 1481 1482 1483 1484 1485 1486 1487 1489 1490 1491 1492 1493 1495 1496 1498
1497 1500 1500 1497 1492 1492 1492 1489 1488 1488 1489 1489 1487 1485 1481 1480 1480 1480 1480 1480 1480 1480 1480 1479 1479 1479 1479 1479 1480 1480 1480 1481 1482 1483 1484 1485 1486 1487 1489 1490 1491 1492 1494 1495
1500 1501 1502 1500 1497 1494 1495 1488 1487 1486 1485 1485 1484 1482 1480 1480 1480 1479 1479 1480 1479 1479 1479 1479 1479 1479 1479 1479 1479 1479 1479 1480 1480 1481 1482 1483 1484 1485 1486 1488 1489 1490 1491 1493
1500 1501 1504 1503 1502 1503 1490 1484 1483 1483 1483 1482 1480 1479 1479 1478 1478 1478 1479 1479 1479 1478 1478 1478 1478 1478 1478 1478 1478 1478 1478 1479 1479 1480 1480 1481 1482 1483 1484 1485 1487 1488 1489 1490
1495 1499 1504 1506 1507 1499 1488 1483 1483 1483 1482 1479 1478 1477 1478 1477 1478 1478 1478 1478 1477 1477 1477 1477 1477 1477 1477 1477 1477 1477 1477 1477 1477 1478 1478 1479 1480 1481 1482 1483 1484 1485 1486 1487
1495 1497 1504 1507 1505 1498 1486 1480 1479 1482 1482 1475 1475 1475 1476 1476 1479 1477 1476 1476 1476 1476 1476 1476 1475 1475 1476 1476 1476 1475 1475 1475 1476 1476 1477 1478 1479 1479 1480 1481 1482 1483 1484 1485
1500 1502 1505 1506 1505 1493 1482 1479 1479 1485 1479 1473 1471 1472 1473 1473 1474 1474 1473 1474 1474 1474 1474 1474 1474 1474 1474 1474 1474 1474 1474 1474 1475 1475 1476 1476 1477 1478 1479 1480 1481 1482 1482 1483
1496 1500 1502 1503 1503 1492 1477 1477 1479 1476 1472 1470 1470 1469 1470 1471 1471 1471 1472 1472 1472 1472 1472 1472 1472 1472 1472 1473 1473 1472 1473 1473 1474 1474 1475 1475 1476 1477 1477 1478 1479 1479 1480 1480
1489 1488 1488 1489 1484 1476 1474 1472 1471 1471 1470 1469 1468 1468 1468 1469 1469 1470 1470 1470 1470 1471 1471 1471 1471 1471 1471 1471 1471 1471 1471 1472 1472 1473 1473 1474 1475 1475 1476 1476 1477 1477 1478 1478
1483 1481 1482 1481 1475 1472 1471 1470 1469 1469 1468 1467 1467 1467 1467 1467 1467 1468 1469 1469 1469 1469 1469 1469 1469 1469 1469 1470 1470 1470 1470 1470 1471 1471 1472 1472 1473 1473 1474 1474 1475 1475 1475 1475
1477 1477 1477 1475 1470 1469 1467 1467 1467 1466 1466 1466 1465 1465 1465 1465 1466 1466 1467 1467 1468 1468 1468 1468 1468 1468 1468 1468 1469 1469 1469 1469 1469 1470 1470 1471 1471 1471 1472 1472 1472 1472 1473 1473
1470 1470 1470 1467 1463 1464 1463 1463 1464 1464 1463 1463 1463 1463 1464 1464 1464 1465 1465 1466 1467 1467 1467 1467 1467 1467 1467 1467 1467 1468 1468 1468 1468 1468 1468 1468 1469 1469 1470 1470 1470 1470 1471 1471